Zurück zum Katalog

USA 359

AktivMilitärVLEO
NORAD 59819·PAYLOAD·🇺🇸 United States

Gestartet May 22, 2024 von Vandenberg Space Force Base

Loading…

Nächste Überflüge (nächste 24 Stunden)

TLE

VeraltetSource: Mike McCants

Epoche: Aug 25, 2026, 20:35 UTC

1 59819U 24096F   26237.85828323 0.00000000  00000-0  00000-0 0    05
2 59819  70.0163 152.0535 0001850 244.1291 115.8709 14.96713376    07

Verfolge USA 359 in Echtzeit mit AllMySat

Download on the App Store